Showing default

KOYOH, 58464

Orbit data source: Space-Track

KOYOH, 58464 is a payload satellite owned by Kanazawa U (JP) in SSO that was launched on Fri, 01 Dec 2023 UTC via an FALCON 9 launch vehicle from the Air Force Western Test Range (AFWTR). Payload-class satellites include a variety of spacecraft equipped with specific instruments for various scientific and technological missions. These include communications satellites like Starlink; space stations such as the ISS; scientific satellites like the Hubble; Earth observation satellites from companies like Planet Labs, Umbra, and HawkEye 360; GPS; miniature CubeSats for education and research; and military/defense satellites.

Loading next visibility...
Identifier
58464, 2023-185C
Orbit
SSO
Country
Flag of JPJP / JPN
Related business
Manufacturer
Kanazawa U
Mission
Operational Amateur Technology
Bus & Motor
KOYOH, Unknown motor
Mass
43 kg wet, 43 kg dry
Launch date (UTC)
2023-12-01 (2 years ago)
Launch vehicle
FALCON 9
Launch site
Air Force Western Test Range (AFWTR)
Object type
Payload
Rocket body
Debris
Shape & HBR
Box, 0.3 m
Radar Cross Section
0.375 m², Medium (>0.1 m² and < 1m²)

Expand to show TLE details & history
Last TLE update: 15 hours ago

TLE from 15 hours ago
0 KOYOH
1 58464U 23185C   25306.53424734  .00007578  00000-0  41246-3 0  9991
2 58464  97.5610  14.9475 0007721  23.4161 336.7421 15.14703589105770
Epoch: 2025-11-02T12:49Z
TLE epoch observation values (Epoch: 2025-11-02T12:49:18.970Z)
Latitude
-0°
Longitude
140.56986°
Altitude
520.062 km
Speed
7.606 km/s
True Right ascension
00h 59m 47s
True Declination
0° 00' 00"
Sunlit
Object was in full shadow at epoch
Visualization orbit readout
Latitude
Unknown
Longitude
Unknown
Altitude
Unknown
Speed
Unknown
Apparent Right ascension
Unknown
Apparent Declination
Unknown
Sunlit
N/A
Visualization observer readout
Local Sidereal Time
23:58:16
Azimuth
Unknown
Elevation
Unknown
Doppler factor
Unknown
Orbital elements
Apogee altitude
524.183 km
Perigee altitude
513.533 km
Semi-major axis
6,896.995 km
Eccentricity
0.00077
Inclination
97.561°
RAAN
14.9475°
Arg. of periapsis
23.4161°
True anomaly
336.70713°
Mean anomaly
336.7421°
Eccentric anomaly
336.72462°
Mean motion
3.78925 °/min
Orbital period
95.01 mins
BSTAR
0.00041246
Loading maneuver chart data...
Computing Atmospheric mass density...
Loading historical data...
Loading historical data...
Loading historical data...
Loading historical data...
Loading historical data...
Loading historical data...
Loading historical data...

Documentation

Showing up to 5 results
|